| time (UTC) | temp C | wind direction | speed KPH | gust KPH | rain 1hr cm | rain 24hr cm | rain mn cm | humidity % | barometer mb |
| 20260506114536 | 13 | 284 | 3.2 | 9.7 | 0.00 | 0.23 | 0.08 | 88 | 1009.8 |
| 20260506113041 | 13 | 288 | 3.2 | 11.3 | 0.00 | 0.23 | 0.08 | 88 | 1009.7 |
| 20260506111535 | 13 | 278 | 3.2 | 12.9 | 0.00 | 0.23 | 0.08 | 89 | 1009.7 |
| 20260506110038 | 13 | 335 | 3.2 | 9.7 | 0.00 | 0.23 | 0.08 | 90 | 1009.7 |
| 20260506104536 | 12 | 269 | 4.8 | 9.7 | 0.00 | 0.36 | 0.08 | 90 | 1009.6 |
| 20260506103039 | 12 | 290 | 4.8 | 17.7 | 0.05 | 0.36 | 0.08 | 91 | 1009.6 |
| 20260506101535 | 12 | 271 | 3.2 | 14.5 | 0.08 | 0.36 | 0.08 | 94 | 1009.6 |
| 20260506100037 | 12 | 319 | 4.8 | 12.9 | 0.05 | 0.33 | 0.05 | 94 | 1009.6 |
| 20260506094538 | 11 | 277 | 3.2 | 9.7 | 0.05 | 0.33 | 0.05 | 94 | 1009.6 |
| 20260506093035 | 12 | 22 | 3.2 | 8.0 | 0.00 | 0.28 | 0.00 | 92 | 1009.4 |
| 20260506091536 | 12 | 277 | 1.6 | 6.4 | 0.00 | 0.28 | 0.00 | 91 | 1009.2 |
| 20260506090035 | 12 | 328 | 1.6 | 9.7 | 0.00 | 0.28 | 0.00 | 90 | 1009.0 |
| 20260506084539 | 12 | 293 | 3.2 | 17.7 | 0.00 | 0.28 | 0.00 | 89 | 1008.9 |
| 20260506083034 | 12 | 249 | 4.8 | 17.7 | 0.00 | 0.28 | 0.00 | 89 | 1008.9 |
| 20260506081537 | 11 | 283 | 4.8 | 12.9 | 0.00 | 0.28 | 0.00 | 91 | 1008.8 |
| 20260506073035 | 11 | 313 | 3.2 | 11.3 | 0.00 | 0.30 | 0.00 | 93 | 1008.6 |
| 20260506071536 | 11 | 244 | 3.2 | 9.7 | 0.00 | 0.30 | 0.00 | 93 | 1008.5 |
| 20260506061535 | 11 | 205 | 1.6 | 11.3 | 0.00 | 0.36 | 0.00 | 95 | 1008.2 |
| 20260506044538 | 10 | 289 | 1.6 | 6.4 | 0.00 | 0.56 | 0.00 | 96 | 1008.1 |
| 20260506043035 | 10 | 307 | 1.6 | 9.7 | 0.00 | 0.56 | 0.00 | 96 | 1008.1 |
| 20260506041537 | 10 | 285 | 0.0 | 6.4 | 0.00 | 0.56 | 0.00 | 96 | 1007.9 |
| 20260506040036 | 10 | 302 | 0.0 | 6.4 | 0.00 | 0.56 | 0.00 | 96 | 1007.9 |
| 20260506034540 | 10 | 264 | 0.0 | 4.8 | 0.00 | 0.79 | 0.00 | 96 | 1007.9 |
| 20260506033033 | 10 | 231 | 1.6 | 9.7 | 0.00 | 0.79 | 0.00 | 96 | 1007.9 |
| 20260506031536 | 10 | 270 | 0.0 | 8.0 | 0.00 | 0.79 | 0.00 | 96 | 1007.9 |
| 20260506030040 | 10 | 208 | 0.0 | 6.4 | 0.00 | 0.79 | 0.00 | 96 | 1008.0 |
| 20260506024556 | 10 | 262 | 0.0 | 4.8 | 0.00 | 0.84 | 0.00 | 96 | 1007.9 |
| 20260506023034 | 10 | 262 | 1.6 | 6.4 | 0.00 | 0.84 | 0.00 | 96 | 1007.8 |
| 20260506021534 | 10 | 257 | 0.0 | 6.4 | 0.00 | 0.84 | 0.00 | 96 | 1007.9 |
| 20260506020035 | 10 | 291 | 0.0 | 6.4 | 0.00 | 0.84 | 0.00 | 95 | 1008.0 |
| 20260506014536 | 10 | 268 | 0.0 | 4.8 | 0.00 | 0.91 | 0.00 | 95 | 1008.1 |
| 20260506013044 | 10 | 264 | 1.6 | 6.4 | 0.00 | 0.91 | 0.00 | 95 | 1008.3 |
| 20260506011535 | 10 | 221 | 0.0 | 3.2 | 0.00 | 0.91 | 0.00 | 96 | 1008.4 |
| 20260506010037 | 10 | 233 | 0.0 | 4.8 | 0.00 | 0.91 | 0.00 | 96 | 1008.7 |
| 20260506004536 | 10 | 226 | 0.0 | 3.2 | 0.00 | 1.02 | 0.00 | 95 | 1008.8 |
| 20260506003036 | 10 | 0 | 0.0 | 4.8 | 0.00 | 1.02 | 0.00 | 96 | 1008.8 |
| 20260506001538 | 10 | 247 | 0.0 | 3.2 | 0.00 | 1.02 | 0.00 | 97 | 1008.8 |
| 20260506000037 | 10 | 0 | 0.0 | 1.6 | 0.00 | 1.02 | 0.00 | 97 | 1008.9 |
| 20260505234537 | 10 | 0 | 0.0 | 1.6 | 0.00 | 1.04 | 0.00 | 97 | 1009.0 |
| 20260505233035 | 10 | 0 | 0.0 | 4.8 | 0.00 | 1.04 | 0.00 | 97 | 1009.0 |
| 20260505231537 | 10 | 0 | 0.0 | 0.0 | 0.00 | 1.04 | 0.00 | 97 | 1009.1 |
| 20260505230050 | 10 | 0 | 0.0 | 0.0 | 0.00 | 1.04 | 0.00 | 97 | 1009.4 |
| 20260505224536 | 10 | 0 | 0.0 | 1.6 | 0.00 | 1.04 | 0.00 | 97 | 1009.4 |
| 20260505223045 | 10 | 0 | 0.0 | 4.8 | 0.00 | 1.04 | 0.00 | 98 | 1009.4 |
| 20260505221537 | 9 | 0 | 0.0 | 1.6 | 0.00 | 1.04 | 0.00 | 98 | 1009.4 |
| 20260505220041 | 9 | 0 | 0.0 | 1.6 | 0.00 | 1.04 | 0.00 | 97 | 1009.3 |
| 20260505214535 | 9 | 0 | 0.0 | 1.6 | 0.00 | 1.04 | 1.04 | 97 | 1009.5 |
| 20260505213050 | 9 | 250 | 0.0 | 0.0 | 0.00 | 1.04 | 1.04 | 97 | 1009.4 |
| 20260505211535 | 9 | 0 | 0.0 | 1.6 | 0.00 | 1.04 | 1.04 | 97 | 1009.3 |
| 20260505210035 | 9 | 0 | 0.0 | 0.0 | 0.00 | 1.04 | 1.04 | 96 | 1009.4 |
| 20260505204534 | 9 | 0 | 0.0 | 0.0 | 0.00 | 1.04 | 1.04 | 96 | 1009.4 |
| 20260505203043 | 10 | 0 | 0.0 | 0.0 | 0.00 | 1.04 | 1.04 | 96 | 1009.3 |
| 20260505201538 | 10 | 0 | 0.0 | 1.6 | 0.00 | 1.04 | 1.04 | 95 | 1009.3 |
| 20260505200037 | 10 | 239 | 0.0 | 3.2 | 0.00 | 1.04 | 1.04 | 96 | 1009.2 |
| 20260505194535 | 10 | 0 | 0.0 | 0.0 | 0.00 | 1.04 | 1.04 | 96 | 1009.2 |
| 20260505193035 | 10 | 0 | 0.0 | 1.6 | 0.00 | 1.04 | 1.04 | 96 | 1009.0 |
| 20260505191534 | 10 | 0 | 0.0 | 0.0 | 0.00 | 1.04 | 1.04 | 94 | 1008.9 |
| 20260505190038 | 10 | 0 | 0.0 | 1.6 | 0.00 | 1.04 | 1.04 | 93 | 1008.7 |
| 20260505184535 | 11 | 0 | 0.0 | 0.0 | 0.00 | 1.04 | 1.04 | 92 | 1008.7 |
| 20260505183034 | 11 | 0 | 0.0 | 3.2 | 0.00 | 1.04 | 1.04 | 91 | 1008.6 |
| 20260505181535 | 12 | 221 | 0.0 | 4.8 | 0.00 | 1.04 | 1.04 | 91 | 1008.6 |
| 20260505180038 | 12 | 238 | 1.6 | 6.4 | 0.15 | 1.04 | 1.04 | 89 | 1008.3 |
| 20260505174537 | 12 | 235 | 3.2 | 12.9 | 0.15 | 1.04 | 1.04 | 89 | 1008.5 |
| 20260505173043 | 13 | 282 | 1.6 | 6.4 | 0.15 | 1.04 | 1.04 | 88 | 1008.6 |
| 20260505171537 | 15 | 236 | 0.0 | 4.8 | 0.10 | 1.02 | 1.02 | 85 | 1008.5 |
| 20260505164548 | 17 | 255 | 4.8 | 11.3 | 0.00 | 0.89 | 0.89 | 75 | 1008.2 |
| 20260505163032 | 17 | 278 | 3.2 | 11.3 | 0.00 | 0.89 | 0.89 | 77 | 1008.1 |
| 20260505161530 | 16 | 277 | 3.2 | 11.3 | 0.00 | 0.89 | 0.89 | 81 | 1008.2 |
| 20260505153048 | 17 | 338 | 6.4 | 16.1 | 0.00 | 0.89 | 0.89 | 75 | 1008.1 |
| 20260505151543 | 17 | 319 | 6.4 | 22.5 | 0.00 | 0.89 | 0.89 | 75 | 1008.0 |
| 20260505124540 | 17 | 226 | 4.8 | 22.5 | 0.00 | 0.89 | 0.89 | 76 | 1008.3 |
| 20260505123037 | 16 | 295 | 3.2 | 19.3 | 0.00 | 0.89 | 0.89 | 78 | 1008.5 |
| 20260505121537 | 16 | 297 | 6.4 | 19.3 | 0.00 | 0.89 | 0.89 | 76 | 1008.5 |
| 20260505120037 | 17 | 269 | 4.8 | 19.3 | 0.00 | 0.89 | 0.89 | 74 | 1008.5 |